Погода в Гороке

Папуа-Новая Гвинея     6°06′13″S   145°23′35″E
темп.,
°C
ветер,
м/с
пор.,
м/с
влажн.,
%
обл.,
%
осадки,
мм/ч
давл.,
гПа
погр.,
м
10 августа, ср
ср1001:00+14ю019778 0.1 101516
04:00+14юз019590 0.1 101425
07:00+14ююз119166 0.0 101548
10:00+21св115841 0.0 10141026
13:00+22ссв326374 0.6 10111251
16:00+20ссв2271100 1.6 1011873
19:00+16сз019485 0.8 101425
22:00+15вюв1196100 1.6 101627
11 августа, чт
чт1101:00+14ю1197100 0.2 101521
04:00+14юз1197100 0.3 101518
07:00+14ююз1194100 0.0 101620
10:00+20св117187 0.1 1015886
13:00+21св326689 0.3 10121083
16:00+19ссв227777 1.1 1011656
19:00+16в019669 1.5 101429
22:00+15ююв119626 2.0 101616
12 августа, пт
пт1201:00+14ююз119631 0.1 101521
04:00+14ююз229645 0.2 101465
07:00+14ююз129348 0.0 101672
10:00+21св116797 0.1 1014954
13:00+19св2284100 1.5 1012687
16:00+17с2395100 4.0 1011438
19:00+16с12100100 3.3 1014162
22:00+15зюз1199100 24.7 101698
13 августа, сб
сб1301:00+14юз1298100 9.8 101598
04:00+14ююз1298100 14.3 101481
07:00+14ююз2398100 2.5 101693
10:00+15ююз1196100 3.3 101796
13:00+16ссз1193100 0.5 1015237
16:00+16с119398 1.3 1013240
19:00+15ссз1198100 0.6 101556
22:00+15ююз1196100 0.9 101632
14 августа, вс
вс1401:00+14ююз229792 0.8 101588
04:00+15ююз129790 1.0 1014109
07:00+15ююз1196100 0.0 101564
10:00+19ссв118166 0.6 1015755
13:00+18с229293 1.9 1013419
16:00+18ссз229191 3.8 1012442
19:00+15сз119863 1.3 101433
22:00+15сз119862 1.6 101653